TimeCDT,TemperatureF,Dew PointF,Humidity,Sea Level PressureIn,VisibilityMPH,Wind Direction,Wind SpeedMPH,Gust SpeedMPH,PrecipitationIn,Events,Conditions,WindDirDegrees,DateUTC
12:11 AM,69.8,66.2,88,29.84,10.0,Calm,Calm,-,N/A,,Clear,0,2013-06-25 05:11:00
12:31 AM,66.2,64.4,94,29.85,7.0,Calm,Calm,-,N/A,,Clear,0,2013-06-25 05:31:00
12:51 AM,68.0,64.4,88,29.85,7.0,SSE,3.5,-,N/A,,Clear,160,2013-06-25 05:51:00
1:11 AM,66.2,64.4,94,29.84,7.0,SSE,3.5,-,N/A,,Clear,160,2013-06-25 06:11:00
1:31 AM,64.4,62.6,94,29.85,10.0,Calm,Calm,-,N/A,,Clear,0,2013-06-25 06:31:00
1:50 AM,64.4,62.6,94,29.84,10.0,SSE,3.5,-,N/A,,Clear,160,2013-06-25 06:50:00
2:11 AM,64.4,62.6,94,29.84,10.0,SSE,3.5,-,N/A,,Clear,160,2013-06-25 07:11:00
2:31 AM,64.4,62.6,94,29.85,10.0,Calm,Calm,-,N/A,,Clear,0,2013-06-25 07:31:00
2:51 AM,64.4,62.6,94,29.85,10.0,South,3.5,-,N/A,,Clear,180,2013-06-25 07:51:00
3:11 AM,64.4,62.6,94,29.85,10.0,Calm,Calm,-,N/A,,Clear,0,2013-06-25 08:11:00
3:30 AM,64.4,60.8,88,29.84,10.0,Calm,Calm,-,N/A,,Clear,0,2013-06-25 08:30:00
3:51 AM,62.6,60.8,94,29.85,7.0,Calm,Calm,-,N/A,,Clear,0,2013-06-25 08:51:00
4:10 AM,60.8,59.0,94,29.85,4.0,Calm,Calm,-,N/A,,Clear,0,2013-06-25 09:10:00
4:31 AM,60.8,59.0,94,29.85,5.0,Calm,Calm,-,N/A,,Clear,0,2013-06-25 09:31:00
4:51 AM,60.8,59.0,94,29.85,4.0,Calm,Calm,-,N/A,,Clear,0,2013-06-25 09:51:00
5:10 AM,60.8,59.0,94,29.85,5.0,Calm,Calm,-,N/A,,Clear,0,2013-06-25 10:10:00
5:31 AM,59.0,57.2,94,29.84,0.5,Calm,Calm,-,N/A,Fog,Fog,0,2013-06-25 10:31:00
5:51 AM,59.0,59.0,100,29.84,3.0,Calm,Calm,-,N/A,,Clear,0,2013-06-25 10:51:00
6:11 AM,60.8,59.0,94,29.84,5.0,Calm,Calm,-,N/A,,Clear,0,2013-06-25 11:11:00
6:31 AM,59.0,59.0,100,29.83,1.2,Calm,Calm,-,N/A,,Mist,0,2013-06-25 11:31:00
6:51 AM,62.6,60.8,94,29.83,7.0,Calm,Calm,-,N/A,,Clear,0,2013-06-25 11:51:00
7:11 AM,62.6,62.6,100,29.83,10.0,Calm,Calm,-,N/A,,Clear,0,2013-06-25 12:11:00
7:31 AM,64.4,64.4,100,29.83,10.0,East,3.5,-,N/A,,Clear,100,2013-06-25 12:31:00
7:51 AM,64.4,64.4,100,29.84,10.0,SE,5.8,-,N/A,,Clear,130,2013-06-25 12:51:00
8:11 AM,64.4,62.6,94,29.84,10.0,SE,3.5,-,N/A,,Clear,140,2013-06-25 13:11:00
8:31 AM,66.2,62.6,88,29.83,10.0,SE,3.5,-,N/A,,Clear,140,2013-06-25 13:31:00
8:51 AM,69.8,64.4,83,29.83,10.0,SE,3.5,-,N/A,,Clear,140,2013-06-25 13:51:00
9:11 AM,69.8,62.6,78,29.83,10.0,SSE,3.5,-,N/A,,Clear,150,2013-06-25 14:11:00
9:30 AM,73.4,62.6,69,29.83,10.0,SE,3.5,-,N/A,,Clear,140,2013-06-25 14:30:00
9:51 AM,73.4,62.6,69,29.83,10.0,SE,4.6,-,N/A,,Clear,140,2013-06-25 14:51:00
10:10 AM,73.4,62.6,69,29.83,10.0,SSE,8.1,-,N/A,,Clear,150,2013-06-25 15:10:00
10:30 AM,73.4,62.6,69,29.82,10.0,SE,5.8,-,N/A,,Clear,130,2013-06-25 15:30:00
10:51 AM,75.2,62.6,65,29.82,10.0,SE,8.1,-,N/A,,Clear,130,2013-06-25 15:51:00
11:11 AM,75.2,62.6,65,29.82,10.0,SSE,6.9,-,N/A,,Clear,150,2013-06-25 16:11:00
11:31 AM,75.2,62.6,65,29.82,10.0,SSE,5.8,-,N/A,,Clear,150,2013-06-25 16:31:00
11:50 AM,77.0,62.6,61,29.81,10.0,SE,5.8,-,N/A,,Clear,130,2013-06-25 16:50:00
12:11 PM,77.0,60.8,57,29.82,10.0,Calm,Calm,-,N/A,,Clear,0,2013-06-25 17:11:00
12:30 PM,78.8,60.8,54,29.82,10.0,South,9.2,-,N/A,,Clear,170,2013-06-25 17:30:00
12:51 PM,77.0,60.8,57,29.82,10.0,SE,4.6,-,N/A,,Mostly Cloudy,140,2013-06-25 17:51:00
1:11 PM,78.8,62.6,57,29.83,10.0,South,9.2,-,N/A,,Mostly Cloudy,180,2013-06-25 18:11:00
1:31 PM,78.8,62.6,57,29.82,10.0,South,6.9,-,N/A,,Scattered Clouds,190,2013-06-25 18:31:00
1:51 PM,78.8,60.8,54,29.81,10.0,Calm,Calm,-,N/A,,Scattered Clouds,0,2013-06-25 18:51:00
2:11 PM,80.6,60.8,51,29.81,10.0,South,6.9,-,N/A,,Clear,170,2013-06-25 19:11:00
2:30 PM,78.8,60.8,54,29.81,10.0,South,3.5,-,N/A,,Clear,180,2013-06-25 19:30:00
2:50 PM,80.6,62.6,54,29.81,10.0,ESE,8.1,-,N/A,,Clear,110,2013-06-25 19:50:00
3:11 PM,78.8,60.8,54,29.80,10.0,SSE,4.6,-,N/A,,Clear,150,2013-06-25 20:11:00
3:31 PM,82.4,62.6,51,29.81,10.0,SE,4.6,-,N/A,,Scattered Clouds,140,2013-06-25 20:31:00
3:51 PM,82.4,64.4,54,29.79,10.0,SSE,5.8,-,N/A,,Scattered Clouds,150,2013-06-25 20:51:00
4:11 PM,82.4,62.6,51,29.79,10.0,ESE,8.1,-,N/A,,Clear,110,2013-06-25 21:11:00
4:31 PM,82.4,64.4,54,29.78,10.0,ESE,4.6,-,N/A,,Clear,110,2013-06-25 21:31:00
4:50 PM,82.4,64.4,54,29.78,10.0,SE,8.1,-,N/A,,Clear,130,2013-06-25 21:50:00
5:11 PM,82.4,62.6,51,29.78,10.0,SE,5.8,-,N/A,,Clear,140,2013-06-25 22:11:00
5:31 PM,82.4,62.6,51,29.78,10.0,ESE,6.9,-,N/A,,Clear,120,2013-06-25 22:31:00
5:51 PM,82.4,62.6,51,29.77,10.0,SE,6.9,-,N/A,,Clear,130,2013-06-25 22:51:00
6:10 PM,80.6,60.8,51,29.77,10.0,SE,6.9,-,N/A,,Clear,140,2013-06-25 23:10:00
6:31 PM,80.6,62.6,54,29.77,10.0,ESE,5.8,-,N/A,,Clear,120,2013-06-25 23:31:00
6:51 PM,80.6,62.6,54,29.77,10.0,SE,4.6,-,N/A,,Clear,140,2013-06-25 23:51:00
7:11 PM,78.8,62.6,57,29.77,10.0,SE,6.9,-,N/A,,Scattered Clouds,140,2013-06-26 00:11:00
7:30 PM,78.8,60.8,54,29.76,10.0,SSE,4.6,-,N/A,,Scattered Clouds,150,2013-06-26 00:30:00
7:51 PM,78.8,62.6,57,29.76,10.0,SSE,4.6,-,N/A,,Clear,150,2013-06-26 00:51:00
8:11 PM,77.0,62.6,61,29.76,10.0,SSE,3.5,-,N/A,,Clear,150,2013-06-26 01:11:00
8:31 PM,77.0,62.6,61,29.75,10.0,Calm,Calm,-,N/A,,Clear,0,2013-06-26 01:31:00
8:50 PM,75.2,64.4,69,29.75,10.0,Calm,Calm,-,N/A,,Clear,0,2013-06-26 01:50:00
9:11 PM,73.4,62.6,69,29.75,10.0,Calm,Calm,-,N/A,,Scattered Clouds,0,2013-06-26 02:11:00
9:30 PM,73.4,64.4,73,29.75,10.0,Calm,Calm,-,N/A,,Mostly Cloudy,0,2013-06-26 02:30:00
9:51 PM,73.4,64.4,73,29.75,10.0,Calm,Calm,-,N/A,,Scattered Clouds,0,2013-06-26 02:51:00
10:11 PM,71.6,64.4,78,29.75,10.0,Calm,Calm,-,N/A,,Clear,0,2013-06-26 03:11:00
10:31 PM,71.6,64.4,78,29.75,10.0,Calm,Calm,-,N/A,,Clear,0,2013-06-26 03:31:00
10:51 PM,69.8,64.4,83,29.75,10.0,Calm,Calm,-,N/A,,Clear,0,2013-06-26 03:51:00
11:11 PM,69.8,64.4,83,29.75,10.0,Calm,Calm,-,N/A,,Clear,0,2013-06-26 04:11:00
11:31 PM,69.8,66.2,88,29.75,10.0,Calm,Calm,-,N/A,,Clear,0,2013-06-26 04:31:00
11:50 PM,69.8,68.0,94,29.74,10.0,Calm,Calm,-,N/A,,Clear,0,2013-06-26 04:50:00